Regional Weather Roundup
Issued by NWS

Home | Current Version | Previous Version | Graphics & Text | Print | Product List | Glossary On
Versions: 1 2 3 4 5 6 7 8 9 10 11 12 13 14 15 16 17 18 19 20 21 22 23 24 25 26 27 28 29 30 31 32 33 34 35 36 37 38 39 40 41 42 43 44 45 46 47 48 49 50
000
ASUS43 KMPX 240910
RWRMN
WEATHER ROUNDUP FOR MINNESOTA
NATIONAL WEATHER SERVICE TWIN CITIES/CHANHASSEN MN
400 AM CDT TUE OCT 24 2017


NOTE: "FAIR" INDICATES FEW OR NO CLOUDS BELOW 12,000 FEET WITH NO
SIGNIFICANT WEATHER AND/OR OBSTRUCTIONS TO VISIBILITY. N/A MEANS
CURRENT SKY AND/OR WEATHER CONDITIONS ARE NOT AVAILABLE.

MNZ060>063-068>070-241000-
   Twin Cities Metro

CITY           SKY/WX    TMP DP  RH WIND       PRES   REMARKS
TWIN CITIES    CLOUDY    43  33  68 NW18G32   29.82F
ST PAUL        CLOUDY    43  33  68 NW17      29.82F
CRYSTAL        CLOUDY    42  29  59 NW15G23   29.82F
BLAINE         CLOUDY    45  34  65 NW14G22   29.81F
LAKEVILLE      CLOUDY    39  30  70 NW16G28   29.81F
EDEN PRAIRIE   CLOUDY    43  31  62 NW24G30   29.82F
SOUTH ST PAUL  CLOUDY    44  31  62 NW15G22   29.80F
LAKE ELMO      CLOUDY    43  32  65 NW17G26   29.80S
$$
MNZ001>005-007-008-013>017-022>024-027-028-241000-
   Northwest Minnesota

CITY           SKY/WX    TMP DP  RH WIND       PRES   REMARKS
BEMIDJI        MOCLDY    35  27  74 NW17G23   29.99F WCI  24
HALLOCK        PTCLDY    34  28  80 NW13      30.17S WCI  25
ROSEAU         CLEAR     32  27  80 NW10      30.10S WCI  24
WARROAD        CLEAR     34  28  80 NW13G22   30.08S WCI  25
THIEF RVR FALL CLEAR     33  29  85 NW16      30.11S WCI  23
CROOKSTON      CLEAR     36  28  75 N16       30.15S
FOSSTON        CLEAR     30  27  86 NW14      30.08S WCI  20
DETROIT LAKES  CLEAR     32  30  93 NW17G25   30.06S WCI  21
MOORHEAD       CLEAR     34  28  80 NW20      30.13S WCI  22
PARK RAPIDS    PTCLDY    36  27  69 NW18G30   29.98S
MAHNOMEN       FAIR      31  28  87 NW12G17   30.08R WCI  22
$$
MNZ006-009>011-018-025>026-241000-
   North Central Minnesota

CITY           SKY/WX    TMP DP  RH WIND       PRES   REMARKS
BAUDETTE       PTCLDY    37  29  72 N18G31    30.00F
FLAG ISLAND    CLEAR     36  28  75 N22G29    30.05S
INTL FALLS     CLOUDY    37  28  70 N14       29.95F
WASKISH        PTCLDY    37  30  75 NW9G17    29.99S
BIG FORK       CLOUDY    37  27  65 N8G24     29.93F
LONGVILLE      PTCLDY    37  28  70 N12G26    29.93S
GRAND RAPIDS   CLOUDY    38  29  70 N24G32    29.91S
CRANE LAKE     CLOUDY    37  32  81 N12G24    29.90F
ORR            CLOUDY    36  28  75 NW14      29.87F
COOK           CLOUDY    36  30  80 NW7G16    29.87F
WALKER         CLOUDY    37  27  66 NW14G23   29.96S
$$
MNZ012-019>021-037-241000-
   Northeast Minnesota

CITY           SKY/WX    TMP DP  RH WIND       PRES   REMARKS
DULUTH         CLOUDY    38  35  89 N22G32    29.75S
ELY            DRIZZLE   36  36 100 NW13G24   29.81S
HIBBING        CLOUDY    37  29  72 N18G30    29.85S
EVELETH        CLOUDY    37  35  92 N13G23    29.84S
DULUTH HARBOR  CLOUDY    45  36  70 NW26G51   29.74F
TWO HARBORS    CLOUDY    43  36  75 NW15G30   29.70S
SILVER BAY     CLOUDY    41  36  81 NW14G23   29.69S
GRAND MARAIS     N/A     45  38  76 N28G43    29.62F
G MARAIS ARPRT CLOUDY    37  34  87 NW16G31   29.66S FOG
$$
MNZ029>031-032-039>041-046>048-054>057-064-241000-
   West Central Minnesota

CITY           SKY/WX    TMP DP  RH WIND       PRES   REMARKS
FERGUS FALLS   CLEAR     34  28  80 N18G32    30.09R WCI  23
WHEATON        CLEAR     36  28  75 NW20G28   30.12S
MORRIS         PTCLDY    36  28  75 N24G36    30.04R
ALEXANDRIA     PTCLDY    36  28  73 N16G30    29.99F
ELBOW LAKE     FAIR      35  31  88 NW20G26   30.06R WCI  23
WADENA         PTCLDY    36  27  69 N17G29    29.98F
GLENWOOD       CLEAR     36  28  75 NW17G26   29.98S
APPLETON       CLOUDY    37  28  70 N23G32    30.05R
BENSON         PTCLDY    36  28  75 N22       30.03S
ORTONVILLE     PTCLDY    36  28  75 NW17G30   30.08S
MADISON        CLOUDY    39  30  70 NW25G36   30.06S
WILLMAR        FAIR      37  30  75 NW18G26   29.98S
$$
MNZ033>034-036-042>043-049>051-058-059-241000-
   Central Minnesota

CITY           SKY/WX    TMP DP  RH WIND       PRES   REMARKS
ST CLOUD       MOCLDY    41  32  70 NW20G31   29.88S
SAUK CENTRE    FAIR      36  28  72 NW16G29   29.96S
PAYNESVILLE    MOCLDY    38  31  76 NW15G21   29.94S
AITKIN         CLOUDY    39  30  70 NW13G23   29.87S
PINE RIVER     CLOUDY    37  28  70 N16G28    29.96F
BRAINERD       CLOUDY    41  29  62 NW25G33   29.91F
STAPLES        MOCLDY    36  25  64 NW21G31   29.95F
LONG PRAIRIE   FAIR      34  28  80 W16       29.95S WCI  23
LITTLE FALLS   CLOUDY    37  23  56 NW15G21   29.92S
LITCHFIELD     CLOUDY    39  30  70 NW16G25   29.92F
BUFFALO        CLOUDY    41  31  67 NW13G21   29.87F
MAPLE LAKE     CLOUDY    42  33  70 NW18G26   29.89S
HUTCHINSON     CLOUDY    40  31  70 NW17G25   29.91F
$$
MNZ037-044-045-052-053-241000-
   East Central Minnesota

CITY           SKY/WX    TMP DP  RH WIND       PRES   REMARKS
PRINCETON      CLOUDY    45  34  65 NW15G26   29.85F
MORA           CLOUDY    41  32  70 N14G29    29.84F
CAMBRIDGE      CLOUDY    46  34  61 NW15G26   29.82F
RUSH CITY      CLOUDY    43  33  68 NW10G24   29.81F
MOOSE LAKE     CLOUDY    41  32  70 N14G30    29.79F
HINCKLEY       CLOUDY    43  34  70 NW17G35   29.81S
CLOQUET        CLOUDY    39  30  70 NW31G47   29.78S
MCGREGOR       CLOUDY    41  32  70 NW25G33   29.85F
$$
MNZ071>073-080-081-089-090-097-098-241000-
   Southwest Minnesota

CITY           SKY/WX    TMP DP  RH WIND       PRES   REMARKS
MONTEVIDEO     MOCLDY    36  28  75 N22G33    30.03R
GRANITE FALLS  PTCLDY    37  30  74 NW20G32   30.03S
CANBY          CLOUDY    37  31  77 W23G30    30.07S
MARSHALL       MOCLDY    35  29  78 NW25G35   30.01F WCI  23
REDWOOD FALLS  PTCLDY    37  27  67 NW17G31   29.97S
OLIVIA         CLEAR     36  32  87 NW15G24   29.96S
PIPESTONE      CLEAR     34  27  75 N18G30    30.04R WCI  23
WORTHINGTON    MOCLDY    35  27  72 NW23G31   29.99F WCI  23
JACKSON        CLEAR     34  28  80 NW25G35   29.95S WCI  21
TRACY          PTCLDY    36  30  78 NW21G31   30.01S
SLAYTON        PTCLDY    34  28  76 NW22G31   30.00F WCI  22
$$
MNZ065>067-074>077-082>085-091>093-241000-
   South Central Minnesota

CITY           SKY/WX    TMP DP  RH WIND       PRES   REMARKS
NEW ULM          N/A     37  28  70 NW20G25   29.92F
ST JAMES       MOCLDY    37  30  75 NW18      29.94S
FAIRMONT       MOCLDY    37  29  72 NW29G39   29.91S
GLENCOE        CLOUDY    41  31  68 NW18G29   29.88F
FARIBAULT      CLOUDY    41  30  65 NW15G24   29.83S
OWATONNA       CLOUDY    39  30  70 NW17G23   29.82F
WASECA         CLOUDY    39  30  70 NW13G25   29.86S
$$
MNZ078>079-086>088-094>096-241000-
   Southeast Minnesota

CITY           SKY/WX    TMP DP  RH WIND       PRES   REMARKS
ROCHESTER      CLOUDY    40  31  70 NW21G29   29.75F
RED WING       CLOUDY    45  30  57 MISG      29.75F
STANTON        CLOUDY    42  32  66 NW21      29.79F
DODGE CENTER   CLOUDY    39  30  70 NW22      29.77F
WINONA         CLOUDY    46  34  61 NW17G24   29.71S
AUSTIN         CLOUDY    39  28  65 NW22G29   29.78S
PRESTON        CLOUDY    40  30  67 NW15G24   29.72S
$$
ABBREVIATIONS USED IN REMARKS
   TC - TEMPERATURES IN CELSIUS
  WCI - WIND CHILL INDEX
   HX - HEAT INDEX
  VSB - VISIBILITY
$$




USA.gov is the U.S. government's official web portal to all federal, state and local government web resources and services.